Back to catalog

STARLINK-31178

AliveCommunicationsVLEO
NORAD 59025·PAYLOAD·🇺🇸 United States

Launched Feb 25, 2024 from Cape Canaveral Space Force Station

Loading…

Next Passes (next 24 hours)

TLE

FreshSource: CelesTrak SupGP

Epoch: Sep 15, 2026, 01:48 UTC

1 59025C 24038C   26258.07548611 -.00028610  00000+0 -10361-2 0  2582
2 59025  43.0036  37.6377 0001454 269.8158 329.4670 15.27596916    18

Track STARLINK-31178 in real time with AllMySat

Download on the App Store